When you browse on this site, cookies collect data to enhance your experience and personalize the content and advertising you see.
Visit our Privacy Policy to learn more. By continuing to use the site, you agree to this use of cookies and data.
  • In Spain
  • List of Countries
  • For 7 days
  • Water Temperature
  • Satellite Maps
  • Weather Map
  • Weather Widgets
  • user-avatar
    Login

    Hourly Weather Sumgayit

    Today, 19 February, Tuesday

    Time Temperature Precipitation Wind Pressure Humidity
    00:00 0°C° 0.2 mm 8 mps 736 mmHg 72%
    01:00 0°C° 0.5 mm 8 mps 737 mmHg 74%
    02:00 -1°C° 0.5 mm 8 mps 737 mmHg 77%
    03:00 -1°C° 0.5 mm 8 mps 737 mmHg 79%
    04:00 -1°C° 0.7 mm 8 mps 738 mmHg 80%
    05:00 -3°C° 0.7 mm 9 mps 738 mmHg 81%
    06:00 -3°C° 0.7 mm 9 mps 738 mmHg 82%
    07:00 -3°C° 0.8 mm 9 mps 739 mmHg 83%
    08:00 -2°C° 0.8 mm 8 mps 740 mmHg 83%
    09:00 -2°C° 0.8 mm 8 mps 740 mmHg 83%
    10:00 -2°C° 0.5 mm 7 mps 741 mmHg 83%
    11:00 -2°C° 0.5 mm 7 mps 741 mmHg 83%
    12:00 -2°C° 0.5 mm 6 mps 742 mmHg 83%
    13:00 -2°C° 0.1 mm 6 mps 742 mmHg 81%
    14:00 -2°C° 0.1 mm 7 mps 742 mmHg 80%
    15:00 -1°C° 0.1 mm 7 mps 743 mmHg 78%
    16:00 -2°C° 0.1 mm 7 mps 743 mmHg 76%
    17:00 -2°C° 0.1 mm 7 mps 744 mmHg 74%
    18:00 -2°C° 0.1 mm 7 mps 745 mmHg 72%
    19:00 -2°C° 0 mm 7 mps 745 mmHg 71%
    20:00 -2°C° 0 mm 7 mps 746 mmHg 70%
    21:00 -2°C° 0 mm 7 mps 747 mmHg 69%
    22:00 -2°C° 0 mm 7 mps 747 mmHg 70%
    23:00 -3°C° 0 mm 6 mps 747 mmHg 70%

    Tomorrow, 20 February, Wednesday

    Time Temperature Precipitation Wind Pressure Humidity
    00:00 -3°C° 0 mm 6 mps 748 mmHg 70%
    01:00 -2°C° 0 mm 5 mps 748 mmHg 71%
    02:00 -2°C° 0 mm 4 mps 748 mmHg 72%
    03:00 -2°C° 0 mm 4 mps 748 mmHg 72%
    04:00 -1°C° 0 mm 3 mps 748 mmHg 74%
    05:00 -1°C° 0 mm 2 mps 749 mmHg 75%
    06:00 -1°C° 0 mm 2 mps 749 mmHg 76%
    07:00 +1°C° 0 mm 1 mps 749 mmHg 75%
    08:00 +2°C° 0 mm 1 mps 749 mmHg 74%
    09:00 +2°C° 0 mm 1 mps 749 mmHg 72%
    10:00 +2°C° 0 mm 2 mps 749 mmHg 72%
    11:00 +1°C° 0 mm 4 mps 749 mmHg 71%
    12:00 +2°C° 0 mm 5 mps 749 mmHg 71%
    13:00 +2°C° 0 mm 5 mps 748 mmHg 69%
    14:00 +3°C° 0 mm 6 mps 748 mmHg 68%
    15:00 +3°C° 0 mm 6 mps 747 mmHg 67%
    16:00 +3°C° 0 mm 6 mps 747 mmHg 71%
    17:00 +2°C° 0 mm 6 mps 747 mmHg 74%
    18:00 +2°C° 0 mm 6 mps 747 mmHg 77%
    19:00 +2°C° 0 mm 6 mps 746 mmHg 79%
    20:00 +2°C° 0 mm 6 mps 746 mmHg 81%
    21:00 +2°C° 0 mm 6 mps 746 mmHg 82%
    22:00 +2°C° 0 mm 7 mps 746 mmHg 83%
    23:00 +2°C° 0 mm 7 mps 745 mmHg 83%

    Day after tomorrow, 21 February, Thursday

    Time Temperature Precipitation Wind Pressure Humidity
    00:00 +3°C° 0 mm 7 mps 745 mmHg 83%
    01:00 +3°C° 0 mm 7 mps 744 mmHg 84%
    02:00 +3°C° 0 mm 7 mps 744 mmHg 86%
    03:00 +3°C° 0 mm 7 mps 743 mmHg 87%
    04:00 +2°C° 0 mm 7 mps 743 mmHg 88%
    05:00 +2°C° 0 mm 7 mps 743 mmHg 88%
    06:00 +2°C° 0 mm 7 mps 743 mmHg 89%
    07:00 +2°C° 0 mm 7 mps 743 mmHg 85%
    08:00 +3°C° 0 mm 7 mps 743 mmHg 81%
    09:00 +3°C° 0 mm 7 mps 743 mmHg 78%
    10:00 +4°C° 0 mm 7 mps 743 mmHg 72%
    11:00 +5°C° 0 mm 7 mps 743 mmHg 67%
    12:00 +6°C° 0 mm 7 mps 742 mmHg 62%
    13:00 +6°C° 0 mm 7 mps 742 mmHg 59%
    14:00 +6°C° 0 mm 7 mps 741 mmHg 57%
    15:00 +8°C° 0 mm 7 mps 741 mmHg 54%
    16:00 +7°C° 0 mm 6 mps 741 mmHg 57%
    17:00 +5°C° 0 mm 6 mps 741 mmHg 60%
    18:00 +6°C° 0 mm 5 mps 741 mmHg 63%
    19:00 +5°C° 0 mm 5 mps 741 mmHg 63%
    20:00 +5°C° 0 mm 5 mps 741 mmHg 63%
    21:00 +4°C° 0 mm 4 mps 741 mmHg 63%
    22:00 +4°C° 0 mm 4 mps 741 mmHg 63%
    23:00 +4°C° 0 mm 4 mps 740 mmHg 63%

    22 February, Friday

    Time Temperature Precipitation Wind Pressure Humidity
    00:00 +4°C° 0 mm 4 mps 740 mmHg 64%
    01:00 +3°C° 0 mm 4 mps 740 mmHg 62%
    02:00 +3°C° 0 mm 4 mps 740 mmHg 61%
    03:00 +3°C° 0 mm 3 mps 739 mmHg 60%
    04:00 +3°C° 0 mm 3 mps 739 mmHg 60%
    05:00 +2°C° 0 mm 3 mps 739 mmHg 59%
    06:00 +3°C° 0 mm 2 mps 740 mmHg 58%
    07:00 +4°C° 0 mm 2 mps 740 mmHg 54%
    08:00 +6°C° 0 mm 2 mps 740 mmHg 51%
    09:00 +7°C° 0 mm 2 mps 741 mmHg 47%
    10:00 +8°C° 0 mm 2 mps 741 mmHg 45%
    11:00 +8°C° 0 mm 2 mps 741 mmHg 42%
    12:00 +9°C° 0 mm 2 mps 741 mmHg 40%
    13:00 +10°C° 0 mm 2 mps 741 mmHg 39%
    14:00 +10°C° 0 mm 3 mps 741 mmHg 39%
    15:00 +10°C° 0 mm 4 mps 740 mmHg 38%
    16:00 +8°C° 0 mm 4 mps 741 mmHg 47%
    17:00 +7°C° 0 mm 4 mps 741 mmHg 55%
    18:00 +5°C° 0 mm 4 mps 741 mmHg 64%
    19:00 +5°C° 0 mm 4 mps 741 mmHg 70%
    20:00 +4°C° 0 mm 3 mps 742 mmHg 76%
    21:00 +4°C° 0 mm 3 mps 742 mmHg 83%
    22:00 +5°C° 0 mm 2 mps 742 mmHg 85%
    23:00 +5°C° 0 mm 1 mps 742 mmHg 86%

    23 February, Saturday

    Time Temperature Precipitation Wind Pressure Humidity
    00:00 +5°C° 0 mm 1 mps 742 mmHg 88%
    01:00 +5°C° 0 mm 1 mps 742 mmHg 88%
    02:00 +5°C° 0 mm 1 mps 741 mmHg 88%
    03:00 +4°C° 0 mm 1 mps 741 mmHg 88%
    04:00 +3°C° 0 mm 2 mps 741 mmHg 85%
    05:00 +3°C° 0 mm 2 mps 741 mmHg 83%
    06:00 +3°C° 0 mm 3 mps 741 mmHg 81%
    07:00 +4°C° 0 mm 4 mps 741 mmHg 76%
    08:00 +4°C° 0 mm 6 mps 741 mmHg 71%
    09:00 +5°C° 0 mm 7 mps 741 mmHg 66%
    10:00 +6°C° 0 mm 7 mps 741 mmHg 60%
    11:00 +7°C° 0 mm 8 mps 741 mmHg 54%
    12:00 +8°C° 0 mm 9 mps 740 mmHg 48%
    13:00 +8°C° 0 mm 9 mps 740 mmHg 45%
    14:00 +8°C° 0 mm 9 mps 740 mmHg 42%
    15:00 +10°C° 0 mm 9 mps 740 mmHg 39%
    16:00 +9°C° 0 mm 8 mps 740 mmHg 41%
    17:00 +9°C° 0 mm 8 mps 740 mmHg 44%
    18:00 +8°C° 0 mm 7 mps 740 mmHg 46%
    19:00 +8°C° 0 mm 7 mps 740 mmHg 48%
    20:00 +6°C° 0 mm 7 mps 740 mmHg 51%
    21:00 +6°C° 0 mm 7 mps 740 mmHg 53%
    22:00 +5°C° 0 mm 6 mps 740 mmHg 57%
    23:00 +5°C° 0 mm 6 mps 740 mmHg 60%

    24 February, Sunday

    Time Temperature Precipitation Wind Pressure Humidity
    00:00 +5°C° 0 mm 6 mps 740 mmHg 64%
    01:00 +5°C° 0 mm 5 mps 740 mmHg 61%
    02:00 +5°C° 0 mm 4 mps 740 mmHg 58%
    03:00 +5°C° 0 mm 4 mps 740 mmHg 55%
    04:00 +4°C° 0 mm 3 mps 740 mmHg 53%
    05:00 +4°C° 0 mm 3 mps 740 mmHg 51%
    06:00 +4°C° 0 mm 3 mps 740 mmHg 48%
    07:00 +5°C° 0 mm 3 mps 741 mmHg 45%
    08:00 +7°C° 0 mm 2 mps 741 mmHg 41%
    09:00 +8°C° 0 mm 2 mps 741 mmHg 38%
    10:00 +10°C° 0 mm 3 mps 742 mmHg 35%
    11:00 +12°C° 0 mm 4 mps 742 mmHg 32%
    12:00 +13°C° 0 mm 5 mps 742 mmHg 29%
    13:00 +14°C° 0 mm 5 mps 742 mmHg 29%
    14:00 +14°C° 0 mm 5 mps 742 mmHg 29%
    15:00 +15°C° 0 mm 5 mps 742 mmHg 29%
    16:00 +14°C° 0 mm 4 mps 742 mmHg 34%
    17:00 +12°C° 0 mm 3 mps 742 mmHg 39%
    18:00 +12°C° 0 mm 2 mps 742 mmHg 44%
    19:00 +12°C° 0 mm 2 mps 742 mmHg 46%
    20:00 +10°C° 0 mm 2 mps 743 mmHg 48%
    21:00 +9°C° 0 mm 2 mps 743 mmHg 51%
    22:00 +9°C° 0 mm 2 mps 743 mmHg 52%
    23:00 +8°C° 0 mm 3 mps 743 mmHg 52%
    Show more